"2016-03-01 00:00:00",1418331,24,326.7,6.227,1.666,13.57,102.5795,5.883,7.119,44.54,0,110.1,13.2,6.66,288.7
"2016-03-01 00:00:30",1418332,23.34,325.4,7.12,1.317,13.02,102.5841,5.895,7.105,46.86,0,110.1,13.21,6.67,287.4
"2016-03-01 00:01:00",1418333,24.1,328.1,6.529,1.543,13.79,102.5822,5.89,7.124,46.2,0,110.1,13.2,6.66,290.1
"2016-03-01 00:01:30",1418334,23.96,326.6,6.587,1.393,13.42,102.5749,5.871,7.114,45.35,0,110.1,13.2,6.64,288.6
"2016-03-01 00:02:00",1418335,24.43,326.5,6.403,1.272,13.79,102.574,5.869,7.088,44.3,0,110.1,13.2,6.64,288.5
"2016-03-01 00:02:30",1418336,24.2,324.6,6.43,1.231,13.76,102.5835,5.893,7.106,44.34,0,110.1,13.2,6.67,286.6
"2016-03-01 00:03:00",1418337,26.13,328.4,6.998,1.699,13.6,102.5885,5.906,7.14,44.88,0,110.1,13.2,6.68,290.4
"2016-03-01 00:03:30",1418338,26.51,331,6.993,1.325,13.48,102.5858,5.899,7.107,45.76,0,110.1,13.2,6.67,293.0
"2016-03-01 00:04:00",1418339,25.51,329.6,6.729,1.343,13.37,102.5784,5.88,7.101,45.51,0,110.1,13.2,6.65,291.6
"2016-03-01 00:04:30",1418340,24,329.1,7.096,1.606,13.04,102.5751,5.872,7.085,45.96,0,110.1,13.2,6.64,291.1
"2016-03-01 00:05:00",1418341,23.49,326.7,6.638,1.493,13.33,102.5653,5.847,7.095,46.43,0,110.1,13.2,6.62,288.7
"2016-03-01 00:05:30",1418342,23.35,326.7,6.856,1.668,13.59,102.5682,5.854,7.09,46.55,0,110.1,13.2,6.63,288.7
"2016-03-01 00:06:00",1418343,24.64,327.6,6.102,1.478,13.52,102.5614,5.837,7.078,45.31,0,110.1,13.2,6.61,289.6
"2016-03-01 00:06:30",1418344,24.27,328.9,6.641,1.421,13.05,102.547,5.8,7.043,46.32,0,110.1,13.2,6.57,290.9
"2016-03-01 00:07:00",1418345,22.42,327.6,6.79,2,13.01,102.5363,5.773,7.014,46.69,0,110.1,13.2,6.55,289.6
"2016-03-01 00:07:30",1418346,20.96,325.3,7.716,1.498,12.91,102.5329,5.764,7,47.29,0,110.1,13.21,6.54,287.3
"2016-03-01 00:08:00",1418347,21.64,331.1,6.389,1.312,13.45,102.5117,5.71,7.001,46.85,0,110.1,13.21,6.48,293.1
"2016-03-01 00:08:30",1418348,21.87,330.2,6.878,1.504,13.44,102.5044,5.691,6.964,46.78,0,110.1,13.21,6.46,292.2
"2016-03-01 00:09:00",1418349,21.33,336.2,6.392,1.483,13.28,102.5059,5.695,6.946,45.91,0,110.1,13.21,6.47,298.2
"2016-03-01 00:09:30",1418350,20.89,331.1,6.896,1.418,13.33,102.5002,5.681,6.928,46.24,0,110.1,13.21,6.45,293.1
"2016-03-01 00:10:00",1418351,20.3,333.3,6.513,1.25,14.08,102.4926,5.661,6.906,43.88,0,110.1,13.21,6.43,295.3
"2016-03-01 00:10:30",1418352,20.19,331.7,6.618,1.51,13.75,102.5011,5.683,6.886,43.91,0,110.1,13.21,6.45,293.7
"2016-03-01 00:11:00",1418353,20.65,328.1,6.522,1.244,12.98,102.5079,5.7,6.904,45.41,0,110.2,13.21,6.47,290.1
"2016-03-01 00:11:30",1418354,20.37,326.3,6.714,1.425,13.21,102.5085,5.702,6.907,46.48,0,110.1,13.21,6.47,288.3
"2016-03-01 00:12:00",1418355,18.82,325.3,6.066,1.48,13.66,102.5085,5.702,6.927,45.02,0,110.1,13.21,6.47,287.3
"2016-03-01 00:12:30",1418356,18.13,322.2,6.63,1.219,13.96,102.5085,5.702,6.893,43.18,0,110.1,13.21,6.47,284.2
"2016-03-01 00:13:00",1418357,17.98,319.4,6.733,1.259,13.81,102.5164,5.722,6.934,42.92,0,110.1,13.21,6.49,281.4
"2016-03-01 00:13:30",1418358,17.34,320.8,6.324,1.339,13.69,102.5373,5.775,6.955,43.1,0,110,13.21,6.55,282.8
"2016-03-01 00:14:00",1418359,16.98,319.4,6.581,1.438,13.83,102.5477,5.802,6.976,41.89,0,110.1,13.21,6.57,281.4
"2016-03-01 00:14:30",1418360,16.57,316.6,6.95,1.376,13.28,102.5712,5.862,6.984,42.66,0,110.1,13.21,6.63,278.6
"2016-03-01 00:15:00",1418361,16.02,313.9,6.629,1.34,13.91,102.5799,5.884,7.013,41.84,0,110.1,13.21,6.66,275.9
"2016-03-01 00:15:30",1418362,16.62,313.5,6.587,1.41,13.86,102.6048,5.948,7.063,41.4,0,110.1,13.21,6.72,275.5
"2016-03-01 00:16:00",1418363,16.06,309.8,6.608,1.274,13.68,102.6226,5.993,7.065,40.87,0,110.1,13.21,6.77,271.8
"2016-03-01 00:16:30",1418364,15.95,311.4,6.659,1.282,13.91,102.6435,6.047,7.128,40.71,0,110,13.21,6.82,273.4
"2016-03-01 00:17:00",1418365,16.29,310.4,6.674,1.269,13.48,102.6672,6.107,7.159,40.66,0,110.1,13.21,6.88,272.4
"2016-03-01 00:17:30",1418366,17.48,311,6.686,1.272,13.23,102.6822,6.146,7.193,40.99,0,110,13.21,6.92,273.0
"2016-03-01 00:18:00",1418367,17.62,312.4,6.833,1.3,13.45,102.7085,6.213,7.26,41.44,0,110.1,13.21,6.99,274.4
"2016-03-01 00:18:30",1418368,17.08,309.5,6.748,1.349,13.68,102.7161,6.232,7.332,41.33,0,110,13.21,7.01,271.5
"2016-03-01 00:19:00",1418369,16.6,307.2,7.37,1.339,13.76,102.7359,6.283,7.352,41.25,0,110,13.21,7.06,269.2
"2016-03-01 00:19:30",1418370,15.76,306.8,7.146,1.213,13.39,102.7458,6.308,7.385,41.08,0,110,13.21,7.08,268.8
"2016-03-01 00:20:00",1418371,15.89,307.4,6.725,1.397,13.14,102.7469,6.311,7.407,41.2,0,110,13.21,7.09,269.4
"2016-03-01 00:20:30",1418372,15.39,310.2,6.355,1.285,13.39,102.7605,6.345,7.441,41.05,0,110,13.2,7.12,272.2
"2016-03-01 00:21:00",1418373,15.52,312.9,6.566,1.324,13.24,102.7669,6.362,7.455,41.3,0,110,13.21,7.14,274.9
"2016-03-01 00:21:30",1418374,15.59,311.8,6.666,1.318,13.02,102.7686,6.366,7.498,42.08,0,110,13.2,7.14,273.8
"2016-03-01 00:22:00",1418375,15.31,309.4,6.742,1.289,12.64,102.7664,6.361,7.513,42.37,0,110,13.2,7.13,271.4
"2016-03-01 00:22:30",1418376,14.82,310.2,6.609,1.24,12.59,102.7624,6.351,7.52,42.59,0,110,13.21,7.12,272.2
"2016-03-01 00:23:00",1418377,15.43,309.7,7.024,1.509,12.63,102.7503,6.32,7.509,43.12,0,110,13.2,7.09,271.7
"2016-03-01 00:23:30",1418378,15.44,305,7.08,1.32,13.32,102.7458,6.308,7.529,43.01,0,110,13.21,7.08,267.0
"2016-03-01 00:24:00",1418379,14.96,298,6.929,1.395,13.57,102.7393,6.291,7.522,41.7,0,110,13.21,7.07,260.0
"2016-03-01 00:24:30",1418380,15.72,302.5,6.781,1.43,12.77,102.7297,6.267,7.51,41.94,0,110.1,13.22,7.04,264.5
"2016-03-01 00:25:00",1418381,16.89,302.9,7.036,1.394,13.72,102.7285,6.264,7.484,40.14,0,110.1,13.22,7.04,264.9
"2016-03-01 00:25:30",1418382,15.38,299.2,6.277,1.358,13.45,102.7291,6.265,7.485,39.58,0,110.1,13.22,7.04,261.2
"2016-03-01 00:26:00",1418383,15.04,303.2,6.981,1.712,13.36,102.7393,6.291,7.484,40.79,0,110,13.21,7.07,265.2
"2016-03-01 00:26:30",1418384,15.55,299.5,6.436,1.277,12.99,102.7455,6.307,7.49,41.42,0,110,13.22,7.08,261.5
"2016-03-01 00:27:00",1418385,16.34,303,7.903,1.697,12.84,102.7458,6.308,7.511,41.98,0,110,13.22,7.08,265.0
"2016-03-01 00:27:30",1418386,16.57,308.8,6.21,1.277,12.82,102.7458,6.308,7.541,41.95,0,110.1,13.22,7.08,270.8
"2016-03-01 00:28:00",1418387,15.81,303,6.57,1.33,12.84,102.7461,6.309,7.524,42.9,0,110,13.22,7.08,265.0
"2016-03-01 00:28:30",1418388,14.4,299.8,6.788,1.268,12.94,102.7461,6.309,7.54,43.36,0,110,13.22,7.08,261.8
"2016-03-01 00:29:00",1418389,13.96,296.8,6.746,1.289,13.01,102.7387,6.29,7.518,42.38,0,110,13.22,7.06,258.8
"2016-03-01 00:29:30",1418390,13.72,294.7,6.092,1.247,12.86,102.7319,6.273,7.515,42.02,0,110,13.22,7.05,256.7
"2016-03-01 00:30:00",1418391,12.93,294.7,6.43,1.309,12.95,102.7294,6.266,7.484,42.14,0,110.1,13.22,7.04,256.7
"2016-03-01 00:30:30",1418392,13.61,296.2,7.138,1.41,11.82,102.7297,6.267,7.472,43.15,0,110,13.22,7.04,258.2
"2016-03-01 00:31:00",1418393,14.18,295.4,6.865,1.321,11.97,102.7209,6.245,7.444,44.86,0,110,13.22,7.02,257.4
"2016-03-01 00:31:30",1418394,13.2,292.7,6.923,1.4,11.13,102.7133,6.225,7.439,44.03,0,110,13.22,7.00,254.7
"2016-03-01 00:32:00",1418395,13.56,293.2,6.601,1.336,10.24,102.7108,6.219,7.328,44.54,0,110,13.22,6.99,255.2
"2016-03-01 00:32:30",1418396,14.85,292.6,6.743,1.407,12.33,102.6967,6.183,7.482,44.86,0,110,13.22,6.96,254.6
"2016-03-01 00:33:00",1418397,14.43,289.9,7.202,1.353,12.47,102.682,6.145,7.461,45.2,0,110,13.22,6.92,251.9
"2016-03-01 00:33:30",1418398,14.89,290.8,7.206,1.383,12.66,102.6826,6.147,7.408,45.63,0,110,13.22,6.92,252.8
"2016-03-01 00:34:00",1418399,16.38,297.5,7.639,1.49,12.47,102.6776,6.134,7.408,46.6,0,110.1,13.22,6.91,259.5
"2016-03-01 00:34:30",1418400,17.88,302.4,6.682,1.279,12.47,102.6553,6.077,7.427,48.01,0,110,13.22,6.85,264.4
"2016-03-01 00:35:00",1418401,16.27,295.4,6.7,1.26,12.43,102.6434,6.046,7.367,47.93,0,110,13.22,6.82,257.4
"2016-03-01 00:35:30",1418402,16.17,295,6.577,1.291,12.63,102.6286,6.009,7.349,48.14,0,110,13.22,6.78,257.0
"2016-03-01 00:36:00",1418403,16.73,295.3,6.408,1.26,13.38,102.6204,5.988,7.321,45.45,0,110,13.22,6.76,257.3
"2016-03-01 00:36:30",1418404,17.58,296.2,6.641,1.398,12.77,102.6092,5.959,7.277,47.79,0,110,13.22,6.73,258.2
"2016-03-01 00:37:00",1418405,18.69,303.9,8.8,1.463,13.21,102.5956,5.924,7.264,46.28,0,110,13.22,6.70,265.9
"2016-03-01 00:37:30",1418406,18.89,305.1,7.134,1.466,13.21,102.5948,5.922,7.227,43.2,0,110,13.21,6.70,267.1
"2016-03-01 00:38:00",1418407,18.09,299.1,6.693,1.499,12.64,102.598,5.93,7.187,46.1,0,110,13.22,6.70,261.1
"2016-03-01 00:38:30",1418408,19.87,299.7,9.45,1.624,13.05,102.5974,5.929,7.206,47.12,0,110,13.22,6.70,261.7
"2016-03-01 00:39:00",1418409,20.83,305.9,6.787,1.875,13.14,102.598,5.93,7.183,44.61,0,110,13.22,6.70,267.9
"2016-03-01 00:39:30",1418410,17.01,312.3,7.927,1.614,13.57,102.5989,5.933,7.158,42.92,0,110,13.21,6.71,274.3
"2016-03-01 00:40:00",1418411,18.19,302.1,7.372,2.091,13.02,102.602,5.941,7.193,43.65,0,110,13.22,6.71,264.1
"2016-03-01 00:40:30",1418412,19.77,298.8,8.24,1.61,12.5,102.6131,5.969,7.177,46.31,0,110,13.22,6.74,260.8
"2016-03-01 00:41:00",1418413,18.12,299.7,7.661,1.427,12.65,102.6086,5.957,7.193,48.08,0,110,13.22,6.73,261.7
"2016-03-01 00:41:30",1418414,17.12,307.9,7.818,1.885,12.64,102.6023,5.942,7.204,48.34,0,110,13.22,6.71,269.9
"2016-03-01 00:42:00",1418415,17.77,305.4,6.922,1.885,12.42,102.6012,5.939,7.151,48.38,0,110,13.22,6.71,267.4
"2016-03-01 00:42:30",1418416,21.15,310.1,6.714,1.849,13.18,102.588,5.905,7.142,44.58,0,110,13.22,6.68,272.1
"2016-03-01 00:43:00",1418417,21.01,315,6.584,1.694,13.43,102.5838,5.894,7.132,42.06,0,110,13.22,6.67,277.0
"2016-03-01 00:43:30",1418418,20.74,306.9,7.11,1.34,13.21,102.5867,5.902,7.115,42.36,0,110,13.22,6.67,268.9
"2016-03-01 00:44:00",1418419,20.61,306.9,6.572,1.436,13.32,102.587,5.902,7.107,43.35,0,110,13.23,6.68,268.9
"2016-03-01 00:44:30",1418420,20.41,309.6,6.659,1.291,12.82,102.5884,5.906,7.09,43.19,0,110,13.23,6.68,271.6
"2016-03-01 00:45:00",1418421,20.6,307.5,7.027,1.283,12.85,102.5878,5.904,7.079,43.81,0,110,13.23,6.68,269.5
"2016-03-01 00:45:30",1418422,20.86,314.2,7.005,1.354,13.06,102.585,5.897,7.091,44.42,0,109.9,13.23,6.67,276.2
"2016-03-01 00:46:00",1418423,20.56,311.2,6.314,1.356,13.13,102.5799,5.884,7.113,44.58,0,110,13.23,6.66,273.2
"2016-03-01 00:46:30",1418424,19.78,312.7,6.352,1.292,13.23,102.5763,5.875,7.075,44.25,0,110,13.23,6.65,274.7
"2016-03-01 00:47:00",1418425,19.99,316.7,7.129,1.273,12.98,102.576,5.874,7.063,42.65,0,110,13.23,6.65,278.7
"2016-03-01 00:47:30",1418426,17.78,315.6,6.631,1.373,12.71,102.5684,5.855,7.057,42.5,0,110,13.23,6.63,277.6
"2016-03-01 00:48:00",1418427,17.2,308.1,7.834,1.414,12.79,102.5582,5.829,7.02,44.82,0,110,13.23,6.60,270.1
"2016-03-01 00:48:30",1418428,16.67,308.5,8.05,1.305,12.84,102.5446,5.794,7.052,46.48,0,110,13.23,6.57,270.5
"2016-03-01 00:49:00",1418429,16.26,315.7,8.39,1.351,12.9,102.5432,5.791,7.024,43.81,0,110,13.23,6.56,277.7
"2016-03-01 00:49:30",1418430,16.98,311.1,9.02,1.362,12.54,102.5381,5.778,7.029,44.49,0,110,13.23,6.55,273.1
"2016-03-01 00:50:00",1418431,17.99,300.9,7.198,1.66,12.5,102.5249,5.744,6.98,46.19,0,110,13.23,6.52,262.9
"2016-03-01 00:50:30",1418432,18.07,299,7.713,1.319,12.49,102.5099,5.705,6.972,46.09,0,110,13.23,6.48,261.0
"2016-03-01 00:51:00",1418433,18.49,295.7,6.568,1.477,12.73,102.5085,5.702,6.947,47.35,0,110,13.23,6.47,257.7
"2016-03-01 00:51:30",1418434,19.13,294.3,6.365,1.649,12.41,102.4878,5.649,6.933,48.39,0,110.1,13.23,6.42,256.3
"2016-03-01 00:52:00",1418435,17.85,299.6,7.478,1.885,12.07,102.4754,5.617,6.925,49.19,0,110,13.22,6.39,261.6
"2016-03-01 00:52:30",1418436,18.78,301.6,7.012,1.296,12.37,102.4624,5.584,6.884,47.25,0,110,13.22,6.36,263.6
"2016-03-01 00:53:00",1418437,18.56,303.5,6.266,1.251,12.48,102.444,5.537,6.838,46.84,0,110,13.22,6.31,265.5
"2016-03-01 00:53:30",1418438,17.87,302.1,6.816,1.444,12.15,102.4398,5.526,6.813,48.41,0,110,13.22,6.30,264.1
"2016-03-01 00:54:00",1418439,18.58,304.6,7.606,1.479,11.86,102.4144,5.461,6.788,49.22,0,110,13.22,6.23,266.6
"2016-03-01 00:54:30",1418440,17.62,299.8,7.252,1.942,11.93,102.4042,5.435,6.778,49.8,0,110,13.22,6.21,261.8
"2016-03-01 00:55:00",1418441,16.61,305.2,6.836,1.414,11.98,102.3796,5.373,6.736,50.5,0,110,13.22,6.14,267.2
"2016-03-01 00:55:30",1418442,17.13,302.3,6.433,1.489,11.99,102.3641,5.333,6.695,50.1,0,110,13.22,6.10,264.3
"2016-03-01 00:56:00",1418443,16.8,304.2,7.107,2.464,12.01,102.3398,5.271,6.624,50.82,0,110,13.22,6.04,266.2
"2016-03-01 00:56:30",1418444,19.81,302.3,6.749,1.226,11.94,102.3214,5.224,6.595,50.53,0,110,13.22,5.99,264.3
"2016-03-01 00:57:00",1418445,19.48,301.9,7.208,1.408,11.9,102.3059,5.184,6.532,50.61,0,110,13.22,5.95,263.9
"2016-03-01 00:57:30",1418446,19.02,301.5,6.743,1.4,11.89,102.2835,5.127,6.489,50.99,0,110,13.23,5.90,263.5
"2016-03-01 00:58:00",1418447,18.84,301.4,6.694,1.345,12.51,102.272,5.098,6.479,51,0,110,13.23,5.87,263.4
"2016-03-01 00:58:30",1418448,19.02,305.3,6.466,1.47,12.36,102.2632,5.075,6.442,50.38,0,110,13.23,5.85,267.3
"2016-03-01 00:59:00",1418449,18.7,299,6.74,1.355,11.79,102.2454,5.03,6.372,51.27,0,110,13.23,5.80,261.0
"2016-03-01 00:59:30",1418450,17.68,301.6,7.452,1.428,11.92,102.238,5.011,6.357,51.78,0,110,13.23,5.78,263.6
"2016-03-01 01:00:00",1418451,18.39,304.8,6.65,1.512,12.36,102.238,5.011,6.326,51.05,0,110,13.23,5.78,266.8
"2016-03-01 01:00:30",1418452,19.39,304.1,6.764,1.29,12.63,102.2321,4.996,6.288,50.65,0,110,13.23,5.77,266.1
"2016-03-01 01:01:00",1418453,19.3,308,7.8,1.296,12.89,102.2276,4.984,6.289,49.54,0,110,13.23,5.75,270.0
"2016-03-01 01:01:30",1418454,19.69,310.8,6.477,1.244,12.73,102.2352,5.004,6.276,47.24,0,110,13.23,5.77,272.8
"2016-03-01 01:02:00",1418455,19.51,311.2,7.117,1.5,12.57,102.238,5.011,6.238,47.89,0,110,13.23,5.78,273.2
"2016-03-01 01:02:30",1418456,19.74,311.4,6.832,1.181,12.94,102.2502,5.042,6.267,47.04,0,110,13.23,5.81,273.4
"2016-03-01 01:03:00",1418457,18.54,307.2,6.853,1.366,12.38,102.2697,5.092,6.288,48.99,0,110,13.23,5.86,269.2
"2016-03-01 01:03:30",1418458,18.38,307.7,6.724,1.21,12.43,102.272,5.098,6.294,50.06,0,110,13.23,5.87,269.7
"2016-03-01 01:04:00",1418459,18.73,309.8,6.753,1.205,12.39,102.272,5.098,6.32,50.13,0,110,13.23,5.87,271.8
"2016-03-01 01:04:30",1418460,18.49,309.6,6.625,1.28,12.03,102.272,5.098,6.331,49.79,0,110,13.24,5.87,271.6
"2016-03-01 01:05:00",1418461,19.09,308,7.023,1.262,12.47,102.272,5.098,6.322,49.87,0,110,13.24,5.87,270.0
"2016-03-01 01:05:30",1418462,18.55,308.7,6.621,1.304,12.74,102.272,5.098,6.318,49.73,0,110,13.24,5.87,270.7
"2016-03-01 01:06:00",1418463,18.67,309.1,7.082,1.322,12.22,102.272,5.098,6.317,49.43,0,110,13.24,5.87,271.1
"2016-03-01 01:06:30",1418464,19.05,310,6.45,1.257,12.6,102.272,5.098,6.328,49.03,0,110,13.24,5.87,272.0
"2016-03-01 01:07:00",1418465,18.28,309,6.573,1.249,12.72,102.2737,5.102,6.348,48.94,0,110,13.24,5.87,271.0
"2016-03-01 01:07:30",1418466,18.31,310.4,6.574,1.504,12.54,102.2804,5.119,6.341,48.67,0,110,13.24,5.89,272.4
"2016-03-01 01:08:00",1418467,18.02,310.4,6.83,1.245,12.77,102.2861,5.134,6.345,48.96,0,110,13.24,5.90,272.4
"2016-03-01 01:08:30",1418468,17.63,311.9,6.716,1.2,12.39,102.2903,5.145,6.36,49,0,110,13.24,5.91,273.9
"2016-03-01 01:09:00",1418469,18.15,313,6.932,1.273,12.61,102.2915,5.147,6.343,49.12,0,110,13.23,5.92,275.0
"2016-03-01 01:09:30",1418470,17.75,314.4,6.529,1.358,12.85,102.2994,5.168,6.358,48.18,0,110,13.23,5.94,276.4
"2016-03-01 01:10:00",1418471,17.63,315.1,6.685,1.345,12.81,102.3056,5.184,6.381,48.53,0,110,13.23,5.95,277.1
"2016-03-01 01:10:30",1418472,17.69,314.6,6.055,1.214,12.94,102.3062,5.185,6.384,48.62,0,110,13.23,5.96,276.6
"2016-03-01 01:11:00",1418473,16.99,313.3,6.343,1.191,12.52,102.3062,5.185,6.38,48.74,0,110,13.23,5.96,275.3
"2016-03-01 01:11:30",1418474,16.88,314.1,6.827,1.244,12.26,102.3059,5.184,6.39,48.7,0,110,13.23,5.95,276.1
"2016-03-01 01:12:00",1418475,15.91,314.4,6.593,1.347,12.55,102.3073,5.188,6.398,48.87,0,110,13.23,5.96,276.4
"2016-03-01 01:12:30",1418476,15.8,314.9,6.723,1.273,12.55,102.3064,5.186,6.417,49.2,0,110,13.23,5.96,276.9
"2016-03-01 01:13:00",1418477,14.93,316.1,6.73,1.397,12.31,102.3082,5.19,6.434,49.28,0,110,13.23,5.96,278.1
"2016-03-01 01:13:30",1418478,14.78,315.9,6.124,1.171,12.48,102.3079,5.189,6.45,49.58,0,110,13.23,5.96,277.9
"2016-03-01 01:14:00",1418479,15.07,319.2,6.291,1.357,12.26,102.307,5.187,6.447,49.13,0,110,13.23,5.96,281.2
"2016-03-01 01:14:30",1418480,15.11,317.6,6.927,1.385,12,102.3059,5.184,6.406,48.95,0,110,13.24,5.95,279.6
"2016-03-01 01:15:00",1418481,15.47,315.3,6.929,1.198,11.96,102.3014,5.173,6.409,50.12,0,110,13.24,5.94,277.3
"2016-03-01 01:15:30",1418482,15,317.7,6.289,1.294,12.19,102.2904,5.145,6.4,50.3,0,110,13.24,5.91,279.7
"2016-03-01 01:16:00",1418483,14.64,318.4,6.161,1.291,12.48,102.2768,5.11,6.386,50.07,0,110,13.24,5.88,280.4
"2016-03-01 01:16:30",1418484,14.83,317.5,6.584,1.183,12.49,102.2774,5.112,6.388,49.83,0,110,13.24,5.88,279.5
"2016-03-01 01:17:00",1418485,15.07,318.5,6.268,1.255,12.2,102.2783,5.114,6.4,49.37,0,110,13.24,5.88,280.5
"2016-03-01 01:17:30",1418486,14.93,317.6,6.711,1.248,11.72,102.2743,5.104,6.357,49.85,0,110,13.24,5.87,279.6
"2016-03-01 01:18:00",1418487,14.12,315.8,6.727,1.248,11.96,102.2645,5.079,6.355,51.55,0,110,13.24,5.85,277.8
"2016-03-01 01:18:30",1418488,14.15,315.9,6.669,1.362,11.89,102.2529,5.049,6.362,51.53,0,110,13.25,5.82,277.9
"2016-03-01 01:19:00",1418489,14.97,318.1,6.349,1.233,12.29,102.2476,5.035,6.336,50.57,0,110,13.24,5.81,280.1
"2016-03-01 01:19:30",1418490,14.9,319.7,6.371,1.185,12.47,102.2456,5.03,6.312,49.89,0,110,13.24,5.80,281.7
"2016-03-01 01:20:00",1418491,14.6,318.7,6.285,1.253,12.07,102.2352,5.004,6.299,49.44,0,110,13.25,5.77,280.7
"2016-03-01 01:20:30",1418492,14.72,318.1,6.288,1.276,12.37,102.2335,5,6.269,49.31,0,110,13.25,5.77,280.1
"2016-03-01 01:21:00",1418493,13.69,315.8,6.445,1.245,12.14,102.2316,4.995,6.27,49.99,0,110,13.25,5.76,277.8
"2016-03-01 01:21:30",1418494,12.88,311.5,6.786,1.239,11.4,102.2212,4.968,6.239,51.05,0,110,13.25,5.74,273.5
"2016-03-01 01:22:00",1418495,13.22,310,7.137,1.27,11.49,102.2209,4.967,6.242,51.55,0,110,13.25,5.74,272.0
"2016-03-01 01:22:30",1418496,13.83,308.3,7.667,1.381,11.95,102.2161,4.955,6.248,52.33,0,110,13.25,5.72,270.3
"2016-03-01 01:23:00",1418497,13.78,313,7.757,1.343,11.79,102.1957,4.903,6.25,50.87,0,110,13.25,5.67,275.0
"2016-03-01 01:23:30",1418498,13.83,308,6.393,1.252,11.94,102.1896,4.887,6.224,51.47,0,110,13.25,5.66,270.0
"2016-03-01 01:24:00",1418499,13.93,309.1,6.861,1.319,11.65,102.1881,4.884,6.184,51.47,0,110,13.25,5.65,271.1
"2016-03-01 01:24:30",1418500,14.22,311.5,6.899,1.321,11.56,102.1899,4.888,6.157,51.69,0,110,13.25,5.66,273.5
"2016-03-01 01:25:00",1418501,14.58,311.8,6.269,1.375,11.99,102.1814,4.866,6.132,50.66,0,110,13.25,5.64,273.8
"2016-03-01 01:25:30",1418502,14.04,309.4,6.628,1.338,11.93,102.1766,4.854,6.129,50.98,0,110,13.24,5.62,271.4
"2016-03-01 01:26:00",1418503,13.79,307.6,6.343,1.211,11.86,102.1758,4.852,6.134,51.75,0,110,13.24,5.62,269.6
"2016-03-01 01:26:30",1418504,13.27,311.4,8.27,1.292,11.47,102.167,4.83,6.108,52.34,0,110,13.24,5.60,273.4
"2016-03-01 01:27:00",1418505,14.04,306.5,7.059,1.412,11.61,102.1617,4.816,6.094,51.46,0,110,13.24,5.58,268.5
"2016-03-01 01:27:30",1418506,13.12,313.5,7.424,1.512,11.76,102.1606,4.813,6.084,51.71,0,110,13.24,5.58,275.5
"2016-03-01 01:28:00",1418507,12.96,305.9,6.475,1.23,11.7,102.1606,4.813,6.098,52.37,0,110,13.24,5.58,267.9
"2016-03-01 01:28:30",1418508,13.06,307.8,7.131,1.325,11.55,102.162,4.817,6.068,53.32,0,110,13.24,5.59,269.8
"2016-03-01 01:29:00",1418509,13.46,310.5,7.573,1.276,11.38,102.1609,4.814,6.09,53.08,0,110,13.24,5.58,272.5
"2016-03-01 01:29:30",1418510,13.14,309.2,7.139,1.152,11.22,102.1563,4.802,6.057,53.47,0,110,13.24,5.57,271.2
"2016-03-01 01:30:00",1418511,13.1,310.1,7.228,1.33,11.41,102.1453,4.774,6.021,53.06,0,110,13.24,5.54,272.1
"2016-03-01 01:30:30",1418512,13.18,311.2,7.149,1.212,11.94,102.1437,4.77,6.046,52.43,0,110,13.24,5.54,273.2
"2016-03-01 01:31:00",1418513,13.11,310.4,6.774,1.181,11.39,102.1434,4.769,6.025,51.86,0,110,13.25,5.54,272.4
"2016-03-01 01:31:30",1418514,13.98,311.5,7.281,1.354,11.72,102.1355,4.749,6.005,52.41,0,110,13.25,5.52,273.5
"2016-03-01 01:32:00",1418515,14.25,317.9,7.092,1.473,11.71,102.1312,4.738,6.004,51.7,0,110,13.25,5.51,279.9
"2016-03-01 01:32:30",1418516,14.3,318.3,6.418,1.543,11.8,102.1304,4.736,6.003,51.78,0,110,13.25,5.50,280.3
"2016-03-01 01:33:00",1418517,12.72,312.8,7.534,1.313,12.01,102.1327,4.742,5.981,52.19,0,110,13.25,5.51,274.8
"2016-03-01 01:33:30",1418518,12.71,311.8,7.005,1.44,11.82,102.1312,4.738,6.02,52.48,0,110,13.25,5.51,273.8
"2016-03-01 01:34:00",1418519,13.59,315.6,6.93,1.503,11.5,102.1353,4.749,6.017,52.3,0,110,13.25,5.52,277.6
"2016-03-01 01:34:30",1418520,14.46,314.1,6.293,1.285,11.69,102.133,4.743,5.988,52.4,0,110,13.25,5.51,276.1
"2016-03-01 01:35:00",1418521,14.22,316.9,6.803,1.211,12.01,102.1361,4.751,5.988,51.84,0,110,13.25,5.52,278.9
"2016-03-01 01:35:30",1418522,14.05,317.2,6.995,1.375,11.87,102.1415,4.765,5.981,51.7,0,110,13.25,5.53,279.2
"2016-03-01 01:36:00",1418523,13.99,315.8,7.105,1.577,11.93,102.1477,4.78,5.99,51.52,0,110,13.25,5.55,277.8
"2016-03-01 01:36:30",1418524,14.46,318.5,7.27,1.327,12.11,102.1474,4.78,5.998,52.24,0,110,13.25,5.55,280.5
"2016-03-01 01:37:00",1418525,15.13,319.5,6.882,1.446,11.98,102.1477,4.78,5.981,50.74,0,110,13.25,5.55,281.5
"2016-03-01 01:37:30",1418526,14.78,322.9,6.527,1.275,12.41,102.154,4.796,5.992,50.2,0,110,13.25,5.57,284.9
"2016-03-01 01:38:00",1418527,14.39,322.5,7.488,1.45,12.44,102.1638,4.822,5.997,50.46,0,110,13.25,5.59,284.5
"2016-03-01 01:38:30",1418528,13.15,317.5,7.364,1.411,11.98,102.1684,4.833,6.019,51.23,0,110,13.25,5.60,279.5
"2016-03-01 01:39:00",1418529,14.36,319.6,6.914,1.245,12.16,102.1695,4.836,6.034,51.75,0,110,13.25,5.60,281.6
"2016-03-01 01:39:30",1418530,14.24,319.6,6.369,1.324,11.9,102.1707,4.839,6.025,52.1,0,110,13.25,5.61,281.6
"2016-03-01 01:40:00",1418531,14.79,320.1,6.729,1.293,12.08,102.171,4.84,6.021,51.01,0,110,13.25,5.61,282.1
"2016-03-01 01:40:30",1418532,14.66,319.4,6.446,1.221,12.35,102.1709,4.84,6.045,50.64,0,110,13.25,5.61,281.4
"2016-03-01 01:41:00",1418533,14.21,319.6,6.879,1.338,12.27,102.1763,4.853,6.055,50.44,0,110,13.25,5.62,281.6
"2016-03-01 01:41:30",1418534,14.64,318.9,6.215,1.233,12.46,102.1851,4.876,6.079,50.63,0,110,13.25,5.64,280.9
"2016-03-01 01:42:00",1418535,15,317.6,6.292,1.204,11.89,102.1902,4.889,6.087,50.89,0,110,13.25,5.66,279.6
"2016-03-01 01:42:30",1418536,15.19,315.2,6.775,1.283,11.85,102.1973,4.907,6.088,51.26,0,110,13.25,5.68,277.2
"2016-03-01 01:43:00",1418537,15.2,316,6.382,1.376,11.95,102.2026,4.921,6.094,51.39,0,110,13.25,5.69,278.0
"2016-03-01 01:43:30",1418538,15.08,315.7,6.259,1.304,12.37,102.2043,4.925,6.085,51.29,0,110,13.24,5.69,277.7
"2016-03-01 01:44:00",1418539,14.7,314,6.307,1.22,11.97,102.2043,4.925,6.09,51.65,0,110,13.24,5.69,276.0
"2016-03-01 01:44:30",1418540,15.64,316.7,6.614,1.194,12.02,102.2029,4.921,6.141,51.58,0,110,13.24,5.69,278.7
"2016-03-01 01:45:00",1418541,15.3,317.5,6.437,1.259,11.89,102.2012,4.917,6.106,51.77,0,110,13.24,5.69,279.5
"2016-03-01 01:45:30",1418542,14.91,318.1,6.965,1.379,12.1,102.1989,4.911,6.09,50.8,0,110,13.24,5.68,280.1
"2016-03-01 01:46:00",1418543,14.84,317.8,6.905,1.325,12.38,102.1981,4.909,6.097,50.86,0,110,13.24,5.68,279.8
"2016-03-01 01:46:30",1418544,15.93,318.4,6.853,1.39,12.56,102.1981,4.909,6.119,49.69,0,109.9,13.24,5.68,280.4
"2016-03-01 01:47:00",1418545,16.45,324.4,6.723,1.159,13.31,102.2035,4.923,6.096,46.38,0,110,13.25,5.69,286.4
"2016-03-01 01:47:30",1418546,15.35,323.2,6.528,1.624,12.97,102.2049,4.926,6.119,46.05,0,110,13.25,5.70,285.2
"2016-03-01 01:48:00",1418547,16.06,320.6,6.646,1.455,12.91,102.2111,4.942,6.133,45.7,0,110,13.25,5.71,282.6
"2016-03-01 01:48:30",1418548,16.64,319,7.994,1.415,13.39,102.2377,5.01,6.13,44.76,0,110,13.25,5.78,281.0
"2016-03-01 01:49:00",1418549,16.13,322.8,6.48,1.525,12.81,102.2527,5.048,6.181,44.4,0,110,13.25,5.82,284.8
"2016-03-01 01:49:30",1418550,17.47,315,7.879,1.515,12.14,102.2724,5.099,6.193,46.67,0,110,13.25,5.87,277.0